GW2464 Weather Reports


Display with metric or nautical units.
time (UTC)temp
F
wind
direction
speed
MPH
gust
MPH
rain 1hr
in
rain 24hr
in
rain mn
in
humidity
%
barometer
mb
20260506000334 68 351 0.0 0.0 0.00 0.00 0.00 61 1008.5
20260505235830 69 0 0.0 0.0 0.00 0.00 0.00 59 1008.1
20260505235328 70 7 0.0 0.0 0.00 0.00 0.00 58 1008.4
20260505234824 70 318 1.0 1.0 0.00 0.00 0.00 53 1008.2
20260505234323 70 270 2.0 2.0 0.00 0.00 0.00 52 1008.1
20260505233819 70 255 4.0 5.0 0.00 0.00 0.00 51 1008.1
20260505233317 71 249 3.0 3.0 0.00 0.00 0.00 51 1007.9
20260505232814 70 266 2.0 2.0 0.00 0.00 0.00 51 1008.0
20260505232312 70 266 1.0 2.0 0.00 0.00 0.00 52 1007.7
20260505231808 71 321 2.0 2.0 0.00 0.00 0.00 51 1008.0
20260505231307 71 249 1.0 1.0 0.00 0.00 0.00 51 1007.9
20260505230804 71 265 1.0 2.0 0.00 0.00 0.00 52 1007.9
20260505230301 71 166 4.0 6.0 0.00 0.00 0.00 51 1007.7
20260505225757 71 247 2.0 2.0 0.00 0.00 0.00 51 1007.8
20260505225255 71 189 3.0 3.0 0.00 0.00 0.00 50 1007.8
20260505224749 71 222 3.0 3.0 0.00 0.00 0.00 51 1007.5
20260505224248 72 194 1.0 2.0 0.00 0.00 0.00 51 1007.4
20260505223745 72 191 3.0 5.0 0.00 0.00 0.00 48 1007.3
20260505223241 72 219 3.0 3.0 0.00 0.00 0.00 48 1007.5
20260505222737 72 220 3.0 5.0 0.00 0.00 0.00 49 1007.7
20260505222234 72 224 3.0 3.0 0.00 0.00 0.00 50 1007.3
20260505221731 73 276 3.0 5.0 0.00 0.00 0.00 48 1007.2
20260505221227 73 212 3.0 3.0 0.00 0.00 0.00 47 1007.4
20260505220724 73 182 4.0 5.0 0.00 0.00 0.00 47 1007.2
20260505220222 74 227 4.0 5.0 0.00 0.00 0.00 46 1007.2
20260505215720 74 212 3.0 3.0 0.00 0.00 0.00 46 1007.1
20260505215217 75 224 1.0 1.0 0.00 0.00 0.00 47 1007.2
20260505214715 74 201 3.0 3.0 0.00 0.00 0.00 48 1007.2
20260505214212 74 339 3.0 5.0 0.00 0.00 0.00 45 1007.1
20260505213710 74 6 3.0 5.0 0.00 0.00 0.00 46 1007.2
20260505213207 74 225 6.0 7.0 0.00 0.00 0.00 45 1007.3
20260505212703 75 169 7.0 9.0 0.00 0.00 0.00 44 1007.1
20260505212200 76 224 8.0 9.0 0.00 0.00 0.00 43 1007.2
20260505211657 75 169 7.0 11.0 0.00 0.00 0.00 42 1006.9
20260505211154 75 205 7.0 9.0 0.00 0.00 0.00 42 1006.8
20260505210650 76 218 4.0 6.0 0.00 0.00 0.00 42 1006.8
20260505210147 77 188 7.0 10.0 0.00 0.00 0.00 42 1006.7
20260505205645 76 183 6.0 10.0 0.00 0.00 0.00 42 1006.8
20260505205143 76 247 5.0 6.0 0.00 0.00 0.00 42 1006.6
20260505204639 74 242 5.0 7.0 0.00 0.00 0.00 43 1006.7
20260505204137 74 206 6.0 7.0 0.00 0.00 0.00 43 1006.3
20260505203634 74 195 9.0 11.0 0.00 0.00 0.00 42 1006.9
20260505203131 74 193 7.0 9.0 0.00 0.00 0.00 41 1006.6
20260505202626 74 235 8.0 13.0 0.00 0.00 0.00 42 1006.6
20260505202123 74 197 5.0 6.0 0.00 0.00 0.00 41 1006.5
20260505201619 74 181 11.0 15.0 0.00 0.00 0.00 41 1006.4
20260505201117 74 163 4.0 5.0 0.00 0.00 0.00 41 1006.7
20260505200615 75 163 7.0 8.0 0.00 0.00 0.00 42 1006.3
20260505200112 75 211 10.0 14.0 0.00 0.00 0.00 40 1006.2
20260505195608 76 126 6.0 7.0 0.00 0.00 0.00 40 1006.6
20260505195106 78 200 5.0 7.0 0.00 0.00 0.00 38 1006.4
20260505194603 77 206 6.0 9.0 0.00 0.00 0.00 38 1006.5
20260505194058 77 240 10.0 11.0 0.00 0.00 0.00 38 1006.6
20260505193555 78 181 11.0 13.0 0.00 0.00 0.00 37 1006.7
20260505193052 77 166 4.0 6.0 0.00 0.00 0.00 39 1006.4
20260505192551 78 220 6.0 6.0 0.00 0.00 0.00 38 1006.8
20260505192048 77 232 2.0 3.0 0.00 0.00 0.00 40 1006.8
20260505191546 77 184 4.0 5.0 0.00 0.00 0.00 40 1006.8
20260505191044 78 173 6.0 10.0 0.00 0.00 0.00 38 1007.0
20260505190538 77 254 5.0 8.0 0.00 0.00 0.00 39 1006.9
20260505190034 76 251 11.0 14.0 0.00 0.00 0.00 40 1007.3
20260505185531 77 214 5.0 6.0 0.00 0.00 0.00 41 1007.2
20260505185028 77 206 7.0 9.0 0.00 0.00 0.00 40 1007.3
20260505184525 77 254 6.0 8.0 0.00 0.00 0.00 40 1007.1
20260505184021 76 154 8.0 9.0 0.00 0.00 0.00 41 1007.3
20260505183518 76 149 4.0 6.0 0.00 0.00 0.00 40 1007.4
20260505183016 76 123 5.0 6.0 0.00 0.00 0.00 40 1007.5
20260505182512 75 192 7.0 9.0 0.00 0.00 0.00 42 1007.6
20260505182009 75 236 4.0 5.0 0.00 0.00 0.00 44 1007.7
20260505181505 75 34 3.0 5.0 0.00 0.00 0.00 45 1007.8
20260505181003 75 188 7.0 9.0 0.00 0.00 0.00 44 1007.9
20260505180458 76 256 15.0 18.0 0.00 0.00 0.00 43 1008.0
20260505175955 78 199 8.0 10.0 0.00 0.00 0.00 41 1008.2
20260505175451 76 263 5.0 7.0 0.00 0.00 0.00 43 1008.5
20260505174948 75 259 6.0 8.0 0.00 0.00 0.00 44 1008.1
20260505174445 75 230 6.0 7.0 0.00 0.00 0.00 45 1007.9
20260505173941 75 240 4.0 5.0 0.00 0.00 0.00 44 1008.0
20260505173438 74 190 7.0 8.0 0.00 0.00 0.00 46 1008.0
20260505172935 75 214 5.0 7.0 0.00 0.00 0.00 46 1007.7
20260505172433 75 236 7.0 9.0 0.00 0.00 0.00 46 1008.0
20260505171932 75 219 7.0 7.0 0.00 0.00 0.00 47 1007.9
20260505171430 75 246 6.0 9.0 0.00 0.00 0.00 48 1007.9
20260505170926 76 170 9.0 10.0 0.00 0.00 0.00 47 1007.9
20260505170423 76 162 6.0 10.0 0.00 0.00 0.00 46 1007.7
20260505165918 75 245 9.0 10.0 0.00 0.00 0.00 47 1008.0
20260505165415 74 259 9.0 11.0 0.00 0.00 0.00 49 1008.2
20260505164910 74 213 13.0 16.0 0.00 0.00 0.00 48 1008.1
20260505164407 74 218 10.0 11.0 0.00 0.00 0.00 49 1008.4
20260505163905 74 358 5.0 7.0 0.00 0.00 0.00 50 1008.7
20260505163404 74 201 6.0 7.0 0.00 0.00 0.00 49 1008.2
20260505162902 73 199 7.0 9.0 0.00 0.00 0.00 49 1008.4
20260505162357 73 246 5.0 6.0 0.00 0.00 0.00 50 1008.7
20260505161855 73 241 5.0 7.0 0.00 0.00 0.00 51 1008.8
20260505161352 74 277 6.0 8.0 0.00 0.00 0.00 51 1008.7
20260505160849 74 261 7.0 10.0 0.00 0.00 0.00 50 1008.8
20260505160347 74 255 7.0 9.0 0.00 0.00 0.00 51 1008.9
20260505153326 71 227 5.0 7.0 0.00 0.00 0.00 54 1009.0
20260505152822 72 248 5.0 7.0 0.00 0.00 0.00 53 1009.0
20260505152319 71 232 6.0 7.0 0.00 0.00 0.00 54 1008.9
20260505151814 72 191 4.0 7.0 0.00 0.00 0.00 55 1009.0
20260505151311 71 223 5.0 5.0 0.00 0.00 0.00 55 1008.9
20260505150808 71 244 7.0 8.0 0.00 0.00 0.00 55 1009.0
20260505150305 72 238 8.0 10.0 0.00 0.00 0.00 54 1008.9
20260505140229 67 262 7.0 9.0 0.00 0.00 0.00 60 1009.2
20260505130153 67 202 3.0 5.0 0.00 0.00 0.00 62 1009.5
20260505124643 65 193 5.0 6.0 0.00 0.00 0.00 64 1009.6
20260505124139 66 268 2.0 2.0 0.00 0.00 0.00 65 1009.7
20260505123635 65 328 4.0 6.0 0.00 0.00 0.00 65 1009.4
20260505123132 65 155 2.0 2.0 0.00 0.00 0.00 65 1009.4
20260505122629 64 122 1.0 2.0 0.00 0.00 0.00 67 1009.6
20260505122126 64 18 3.0 6.0 0.00 0.00 0.00 67 1009.7
20260505121623 63 207 4.0 5.0 0.00 0.00 0.00 68 1009.6
20260505121119 62 145 2.0 2.0 0.00 0.00 0.00 70 1009.6
20260505120615 62 199 3.0 5.0 0.00 0.00 0.00 69 1009.5
20260505120112 62 157 3.0 5.0 0.00 0.00 0.00 70 1009.7
20260505115606 61 223 3.0 3.0 0.00 0.00 0.00 71 1009.9
20260505115103 60 159 2.0 3.0 0.00 0.00 0.00 73 1009.5
20260505114555 60 273 1.0 1.0 0.00 0.00 0.00 75 1009.8
20260505114051 59 166 3.0 3.0 0.00 0.00 0.00 74 1009.8
20260505113547 58 52 1.0 1.0 0.00 0.00 0.00 77 1009.7
20260505113038 57 213 4.0 5.0 0.00 0.00 0.00 77 1009.7
20260505112534 57 130 2.0 2.0 0.00 0.00 0.00 79 1009.8
20260505112032 55 232 1.0 1.0 0.00 0.00 0.00 82 1009.6
20260505111526 56 18 0.0 1.0 0.00 0.00 0.00 83 1009.5
20260505111023 55 10 0.0 1.0 0.00 0.00 0.00 84 1009.6
20260505110519 53 11 0.0 0.0 0.00 0.00 0.00 87 1009.8
20260505101951 50 9 0.0 0.0 0.00 0.00 0.00 89 1008.9
20260505101444 50 0 1.0 2.0 0.00 0.00 0.00 88 1009.1
20260505100940 50 35 1.0 1.0 0.00 0.00 0.00 88 1009.1
20260505100438 50 284 1.0 1.0 0.00 0.00 0.00 87 1009.2
20260505095933 50 282 1.0 1.0 0.00 0.00 0.00 88 1009.0
20260505095430 50 80 1.0 1.0 0.00 0.00 0.00 88 1008.8
20260505094926 50 13 0.0 1.0 0.00 0.00 0.00 88 1008.9
20260505094424 48 277 2.0 2.0 0.00 0.00 0.00 92 1008.6
20260505093919 48 359 0.0 0.0 0.00 0.00 0.00 91 1008.7
20260505093416 48 2 0.0 0.0 0.00 0.00 0.00 91 1008.6
20260505092914 48 352 0.0 0.0 0.00 0.00 0.00 90 1008.7
20260505092412 49 352 0.0 0.0 0.00 0.00 0.00 89 1008.6
20260505091909 49 352 0.0 0.0 0.00 0.00 0.00 88 1008.5
20260505091406 49 352 0.0 0.0 0.00 0.00 0.00 88 1008.6
20260505090904 49 353 0.0 0.0 0.00 0.00 0.00 89 1008.6
20260505090402 49 359 0.0 0.0 0.00 0.00 0.00 89 1008.7
20260505085859 48 8 0.0 0.0 0.00 0.00 0.00 89 1008.7
20260505085357 48 7 0.0 0.0 0.00 0.00 0.00 90 1008.8
20260505084855 47 4 0.0 0.0 0.00 0.00 0.00 91 1008.8
20260505084353 47 359 0.0 0.0 0.00 0.00 0.00 92 1009.0
20260505083850 46 2 0.0 0.0 0.00 0.00 0.00 94 1008.7
20260505083348 46 358 0.0 0.0 0.00 0.00 0.00 93 1008.7
20260505082844 46 358 0.0 0.0 0.00 0.00 0.00 93 1008.8
20260505082340 46 359 0.0 0.0 0.00 0.00 0.00 92 1008.7
20260505081837 47 349 0.0 0.0 0.00 0.00 0.00 89 1008.9
20260505081333 48 6 0.0 0.0 0.00 0.00 0.00 87 1008.5
20260505080830 48 6 0.0 1.0 0.00 0.00 0.00 88 1008.7
20260505080326 48 4 1.0 1.0 0.00 0.00 0.00 89 1008.7
20260505075822 48 0 1.0 1.0 0.00 0.00 0.00 89 1008.7
20260505075319 48 9 1.0 1.0 0.00 0.00 0.00 87 1008.7
20260505074816 48 4 0.0 0.0 0.00 0.00 0.00 88 1009.0
20260505074313 48 3 0.0 1.0 0.00 0.00 0.00 88 1008.8
20260505073811 48 5 1.0 1.0 0.00 0.00 0.00 87 1008.8
20260505073309 48 8 1.0 1.0 0.00 0.00 0.00 88 1008.8
20260505072805 48 6 0.0 1.0 0.00 0.00 0.00 88 1008.8
20260505072301 48 355 1.0 1.0 0.00 0.00 0.00 88 1008.8
20260505071757 48 358 1.0 2.0 0.00 0.00 0.00 85 1008.7
20260505071254 48 351 1.0 1.0 0.00 0.00 0.00 87 1008.8
20260505070752 48 351 0.0 0.0 0.00 0.00 0.00 87 1008.8
20260505070248 48 351 0.0 0.0 0.00 0.00 0.00 86 1008.9
20260505065743 48 351 0.0 0.0 0.00 0.00 0.00 86 1009.0
20260505065240 47 351 0.0 0.0 0.00 0.00 0.00 87 1009.0
20260505064737 47 351 0.0 0.0 0.00 0.00 0.00 88 1008.9
20260505064235 47 351 0.0 0.0 0.00 0.00 0.00 88 1008.8
20260505063732 47 349 0.0 0.0 0.00 0.00 0.00 88 1008.9
20260505063229 47 351 0.0 0.0 0.00 0.00 0.00 88 1008.8
20260505062725 46 351 0.0 0.0 0.00 0.00 0.00 90 1009.1
20260505062223 45 351 0.0 1.0 0.00 0.00 0.00 91 1008.8
20260505061719 46 351 0.0 0.0 0.00 0.00 0.00 90 1008.9
20260505061218 46 4 0.0 0.0 0.00 0.00 0.00 89 1008.8
20260505060715 46 356 0.0 0.0 0.00 0.00 0.00 90 1008.8
20260505060211 46 356 0.0 0.0 0.00 0.00 0.00 89 1009.0
20260505055707 46 356 0.0 0.0 0.00 0.00 0.00 89 1008.8
20260505055203 46 357 0.0 0.0 0.00 0.00 0.00 89 1009.1
20260505054701 46 356 0.0 0.0 0.00 0.00 0.00 89 1008.8
20260505054159 45 2 0.0 0.0 0.00 0.00 0.00 90 1008.9
20260505053656 46 348 0.0 0.0 0.00 0.00 0.00 90 1009.0
20260505053153 46 348 0.0 0.0 0.00 0.00 0.00 89 1008.7
20260505052650 46 353 0.0 0.0 0.00 0.00 0.00 89 1009.0
20260505052147 46 8 0.0 0.0 0.00 0.00 0.00 88 1009.1
20260505051643 47 8 0.0 0.0 0.00 0.00 0.00 86 1008.7
20260505051142 47 8 0.0 0.0 0.00 0.00 0.00 86 1008.7
20260505050639 48 8 1.0 1.0 0.00 0.00 0.00 85 1008.8
20260505050138 47 8 0.0 1.0 0.00 0.00 0.00 85 1008.8
20260505041607 50 1 1.0 1.0 0.00 0.00 0.00 80 1008.8
20260505041104 50 3 1.0 1.0 0.00 0.00 0.00 79 1008.9
20260505040602 50 12 1.0 1.0 0.00 0.00 0.00 78 1008.8
20260505040059 50 3 1.0 1.0 0.00 0.00 0.00 79 1008.8
20260505035555 50 357 1.0 1.0 0.00 0.00 0.00 80 1008.5
20260505035051 51 9 1.0 1.0 0.00 0.00 0.00 78 1008.6
20260505034548 52 1 0.0 1.0 0.00 0.00 0.00 77 1008.8
20260505034045 52 0 0.0 0.0 0.00 0.00 0.00 74 1008.8
20260505033542 53 353 0.0 1.0 0.00 0.00 0.00 75 1008.6
20260505033040 53 359 0.0 0.0 0.00 0.00 0.00 75 1008.8
20260505032538 53 358 0.0 0.0 0.00 0.00 0.00 73 1008.9
20260505032034 54 4 0.0 1.0 0.00 0.00 0.00 72 1008.7
20260505031531 54 10 0.0 0.0 0.00 0.00 0.00 72 1008.9
20260505031027 53 17 1.0 1.0 0.00 0.00 0.00 72 1009.1
20260505030525 54 177 0.0 0.0 0.00 0.00 0.00 71 1009.0
20260505030021 54 1 0.0 1.0 0.00 0.00 0.00 71 1009.2
20260505025516 54 1 0.0 0.0 0.00 0.00 0.00 72 1009.3
20260505025016 54 7 0.0 0.0 0.00 0.00 0.00 72 1009.1
20260505024512 53 0 0.0 0.0 0.00 0.00 0.00 72 1009.2
20260505024009 53 0 0.0 0.0 0.00 0.00 0.00 72 1009.1
20260505023506 54 7 0.0 0.0 0.00 0.00 0.00 70 1009.2
20260505023004 54 6 0.0 0.0 0.00 0.00 0.00 71 1009.1
20260505022501 54 4 0.0 0.0 0.00 0.00 0.00 71 1009.1
20260505021958 54 1 0.0 1.0 0.00 0.00 0.00 71 1009.2
20260505021455 54 5 1.0 1.0 0.00 0.00 0.00 71 1009.0
20260505020950 54 1 0.0 0.0 0.00 0.00 0.00 71 1009.2
20260505020445 53 7 1.0 1.0 0.00 0.00 0.00 73 1009.2
20260505015943 53 13 1.0 1.0 0.00 0.00 0.00 73 1009.1
20260505015440 53 356 1.0 2.0 0.00 0.00 0.00 71 1008.8
20260505014937 53 8 1.0 1.0 0.00 0.00 0.00 72 1009.1
20260505014434 53 6 2.0 2.0 0.00 0.00 0.00 71 1009.0
20260505013931 54 13 1.0 2.0 0.00 0.00 0.00 69 1009.0
20260505013428 54 17 1.0 2.0 0.00 0.00 0.00 69 1008.9
20260505012926 55 0 1.0 1.0 0.00 0.00 0.00 68 1008.8
20260505012424 54 3 1.0 1.0 0.00 0.00 0.00 68 1009.1
20260505011920 54 7 1.0 1.0 0.00 0.00 0.00 70 1008.9
20260505011416 55 0 0.0 1.0 0.00 0.00 0.00 70 1008.8
20260505010913 55 6 1.0 1.0 0.00 0.00 0.00 66 1008.7
20260505010409 56 6 0.0 0.0 0.00 0.00 0.00 66 1008.7
20260505005905 56 357 0.0 0.0 0.00 0.00 0.00 66 1008.8
20260505005402 56 0 0.0 0.0 0.00 0.00 0.00 65 1008.7
20260505004859 56 359 0.0 0.0 0.00 0.00 0.00 66 1008.6
20260505004355 56 7 0.0 0.0 0.00 0.00 0.00 63 1008.2
20260505003853 57 3 1.0 1.0 0.00 0.00 0.00 62 1008.7
20260505003350 58 358 0.0 0.0 0.00 0.00 0.00 61 1008.5
20260505002846 59 1 1.0 1.0 0.00 0.00 0.00 60 1008.4
20260505002343 60 8 0.0 0.0 0.00 0.00 0.00 58 1008.4
20260505001841 61 354 0.0 0.0 0.00 0.00 0.00 57 1008.2
20260505001338 62 347 0.0 0.0 0.00 0.00 0.00 54 1008.2
20260505000835 63 342 0.0 1.0 0.00 0.00 0.00 51 1008.1